Ely, NV

8:25 AM PDT on June 26, 2017 (GMT -0700)
Ely

Weather History for KELY - May, 2013

Change the Weather History Date:

Saturday, May 25, 2013

  Actual Average Record
Temperature  
Mean Temperature 58 °F 53 °F  
Max Temperature 75 °F 71 °F 88 °F (2001)
Min Temperature 41 °F 35 °F 22 °F (1899)
Degree Days  
Heating Degree Days 7 12  
Month to date heating degree days 354 377  
Since 1 July heating degree days 6989 7280  
Cooling Degree Days 0 0  
Month to date cooling degree days 0 0  
Year to date cooling degree days 0 0  
Growing Degree Days 7 (Base 50)    
Moisture  
Dew Point 12 °F    
Average Humidity 23    
Maximum Humidity 37    
Minimum Humidity 9    
Precipitation  
Precipitation 0.00 in 0.03 in 0.60 in (1904)
Month to date precipitation 0.48 0.89  
Year to date precipitation 3.04 4.22  
Snow  
Snow 0.00 in 0.00 in 2.00 in (1893)
Month to date snowfall 0.0 2.2  
Since 1 July snowfall 65.0 50.6  
Snow Depth 0.00 in    
Sea Level Pressure  
Sea Level Pressure 29.74 in    
Wind  
Wind Speed 13 mph (South)    
Max Wind Speed 24 mph    
Max Gust Speed 39 mph    
Visibility 10 miles    
Events      
T = Trace of Precipitation, MM = Missing Value Source: NWS Daily Summary

Daily Weather History Graph

Daily Weather History Graph

Search for Another Location

Airport or City:

Trip Planner

Search our weather history database for the weather conditions in past years. The results will help you decide how hot, cold, wet, or windy it might be!

Date:

Astronomy

May. 25, 2013 Rise Set
Actual Time 5:18 AM PDT 7:55 PM PDT
Civil Twilight 4:46 AM PDT 8:26 PM PDT
Nautical Twilight 4:08 AM PDT 9:05 PM PDT
Astronomical Twilight 3:24 AM PDT 9:48 PM PDT
Moon 8:47 PM PDT (5/25) 5:48 AM PDT (5/25)
Length of Visible Light 15h 39m
Length of Day
14h 36m
Waxing Gibbous, 99% of the Moon is Illuminated
May 25
Waxing Gibbous
May 31
Last Quarter
Jun 8
New
Jun 16
First Quarter
Jun 23
Full

Hourly Weather History & Observations

Time (PDT) Temp. Windchill Dew Point Humidity Pressure Visibility Wind Dir Wind Speed Gust Speed Precip Events Conditions
12:53 AM 39.9 °F 32.9 °F 15.1 °F 36% 29.76 in 10.0 mi South 11.5 mph - N/A   Clear
1:53 AM 42.1 °F 35.2 °F 14.0 °F 32% 29.75 in 10.0 mi South 12.7 mph - N/A   Clear
2:53 AM 44.1 °F 37.7 °F 15.1 °F 31% 29.75 in 10.0 mi SSE 12.7 mph - N/A   Clear
3:53 AM 46.9 °F - 14.0 °F 27% 29.73 in 10.0 mi South 13.8 mph - N/A   Clear
4:53 AM 45.0 °F 38.5 °F 12.9 °F 27% 29.75 in 10.0 mi SSW 13.8 mph - N/A   Clear
5:53 AM 43.0 °F 36.4 °F 12.9 °F 30% 29.77 in 10.0 mi South 12.7 mph - N/A   Clear
6:53 AM 51.1 °F - 15.1 °F 24% 29.75 in 10.0 mi SSW 12.7 mph - N/A   Clear
7:53 AM 59.0 °F - 15.1 °F 18% 29.76 in 10.0 mi South 15.0 mph - N/A   Clear
8:53 AM 63.0 °F - 17.1 °F 17% 29.77 in 10.0 mi SSW 17.3 mph 20.7 mph N/A   Clear
9:53 AM 64.9 °F - 16.0 °F 15% 29.77 in 10.0 mi SSW 13.8 mph 23.0 mph N/A   Clear
10:53 AM 68.0 °F - 12.9 °F 12% 29.76 in 10.0 mi South 18.4 mph 21.9 mph N/A   Clear
11:53 AM 68.0 °F - 12.0 °F 11% 29.79 in 10.0 mi WSW 9.2 mph 21.9 mph N/A   Clear
12:53 PM 70.0 °F - 14.0 °F 12% 29.78 in 10.0 mi SSE 8.1 mph 19.6 mph N/A   Clear
1:53 PM 73.0 °F - 12.9 °F 10% 29.74 in 10.0 mi SSW 12.7 mph 26.5 mph N/A   Clear
2:53 PM 73.9 °F - 14.0 °F 10% 29.73 in 10.0 mi SSW 10.4 mph 19.6 mph N/A   Clear
3:53 PM 73.9 °F - 12.9 °F 10% 29.69 in 10.0 mi South 13.8 mph 19.6 mph N/A   Clear
4:12 PM 73.4 °F - 10.4 °F 9% 29.93 in 10.0 mi SSW 10.4 mph 39.1 mph N/A   Clear
4:53 PM 73.0 °F - 14.0 °F 11% 29.70 in 10.0 mi South 13.8 mph 27.6 mph N/A   Clear
5:53 PM 71.1 °F - 15.1 °F 12% 29.71 in 10.0 mi SSW 9.2 mph 18.4 mph N/A   Clear
6:53 PM 70.0 °F - 12.0 °F 11% 29.68 in 10.0 mi SSW 13.8 mph 27.6 mph N/A   Clear
7:53 PM 64.9 °F - 8.1 °F 11% 29.68 in 10.0 mi South 15.0 mph - N/A   Clear
8:53 PM 64.0 °F - 7.0 °F 11% 29.68 in 10.0 mi South 19.6 mph 26.5 mph N/A   Clear
9:53 PM 55.0 °F - 9.0 °F 16% 29.73 in 10.0 mi South 11.5 mph - N/A   Clear
10:53 PM 59.0 °F - 6.1 °F 12% 29.70 in 10.0 mi SE 17.3 mph 20.7 mph N/A   Clear
11:53 PM 55.9 °F - 7.0 °F 14% 29.73 in 10.0 mi South 13.8 mph - N/A   Clear